Time,TemperatureF,DewpointF,PressureIn,WindDirection,WindDirectionDegrees,WindSpeedMPH,WindSpeedGustMPH,Humidity,HourlyPrecipIn,Conditions,Clouds,dailyrainin,SoftwareType,DateUTC
2013-05-05 00:04:00,51.6,47.5,29.98,NNE,16,1.0,9.0,86,0.00,,,0.00,Wunderground v.1.15,2013-05-05 05:04:00,
2013-05-05 00:10:00,51.6,47.5,29.98,NW,305,2.0,9.0,86,0.00,,,0.00,Wunderground v.1.15,2013-05-05 05:10:00,
2013-05-05 00:16:00,51.6,47.5,29.98,West,278,1.0,9.0,86,0.00,,,0.00,Wunderground v.1.15,2013-05-05 05:16:00,
2013-05-05 00:22:00,51.5,47.5,29.98,NNE,12,1.0,9.0,86,0.00,,,0.00,Wunderground v.1.15,2013-05-05 05:22:00,
2013-05-05 00:28:00,51.5,47.5,29.98,NNE,16,2.0,9.0,86,0.00,,,0.00,Wunderground v.1.15,2013-05-05 05:28:00,
2013-05-05 00:34:00,51.4,47.4,29.98,NNE,27,1.0,9.0,86,0.00,,,0.00,Wunderground v.1.15,2013-05-05 05:34:00,
2013-05-05 00:39:00,51.3,47.3,29.99,NE,54,1.0,9.0,86,0.00,,,0.00,Wunderground v.1.15,2013-05-05 05:39:00,
2013-05-05 00:46:00,51.2,47.2,29.99,NNE,12,1.0,9.0,86,0.00,,,0.00,Wunderground v.1.15,2013-05-05 05:46:00,
2013-05-05 00:52:00,51.2,47.2,29.98,NW,311,2.0,9.0,86,0.00,,,0.00,Wunderground v.1.15,2013-05-05 05:52:00,
2013-05-05 00:58:00,51.1,47.1,29.98,NNW,329,2.0,9.0,86,0.00,,,0.00,Wunderground v.1.15,2013-05-05 05:58:00,
2013-05-05 01:04:00,51.0,47.0,29.98,NW,309,2.0,9.0,86,0.00,,,0.00,Wunderground v.1.15,2013-05-05 06:04:00,
2013-05-05 01:09:00,50.9,46.9,29.98,NE,50,2.0,9.0,86,0.00,,,0.00,Wunderground v.1.15,2013-05-05 06:09:00,
2013-05-05 01:16:00,50.9,46.9,29.98,NNW,334,2.0,9.0,86,0.00,,,0.00,Wunderground v.1.15,2013-05-05 06:16:00,
2013-05-05 01:21:00,50.8,46.8,29.98,NW,323,2.0,9.0,86,0.00,,,0.00,Wunderground v.1.15,2013-05-05 06:21:00,
2013-05-05 01:28:00,50.7,46.4,29.97,NW,323,2.0,9.0,85,0.00,,,0.00,Wunderground v.1.15,2013-05-05 06:28:00,
2013-05-05 01:34:00,50.7,46.7,29.97,NE,34,2.0,9.0,86,0.00,,,0.00,Wunderground v.1.15,2013-05-05 06:34:00,
2013-05-05 01:40:00,50.6,46.6,29.97,NE,44,2.0,9.0,86,0.00,,,0.00,Wunderground v.1.15,2013-05-05 06:40:00,
2013-05-05 01:46:00,50.6,46.6,29.98,NW,304,2.0,9.0,86,0.00,,,0.00,Wunderground v.1.15,2013-05-05 06:46:00,
2013-05-05 01:52:00,50.5,46.5,29.98,West,264,2.0,9.0,86,0.00,,,0.00,Wunderground v.1.15,2013-05-05 06:52:00,
2013-05-05 01:58:00,50.5,46.5,29.97,NW,319,1.0,9.0,86,0.00,,,0.00,Wunderground v.1.15,2013-05-05 06:58:00,
2013-05-05 02:03:00,50.4,46.4,29.97,NNW,344,1.0,9.0,86,0.00,,,0.00,Wunderground v.1.15,2013-05-05 07:03:00,
2013-05-05 02:10:00,50.3,46.3,29.97,NW,318,1.0,9.0,86,0.00,,,0.00,Wunderground v.1.15,2013-05-05 07:10:00,
2013-05-05 02:16:00,50.2,46.5,29.97,NNW,343,2.0,9.0,87,0.00,,,0.00,Wunderground v.1.15,2013-05-05 07:16:00,
2013-05-05 02:22:00,50.1,46.4,29.97,NW,315,1.0,9.0,87,0.00,,,0.00,Wunderground v.1.15,2013-05-05 07:22:00,
2013-05-05 02:28:00,50.0,46.3,29.97,NW,326,2.0,9.0,87,0.00,,,0.00,Wunderground v.1.15,2013-05-05 07:28:00,
2013-05-05 02:33:00,49.9,46.2,29.97,NW,308,1.0,9.0,87,0.00,,,0.00,Wunderground v.1.15,2013-05-05 07:33:00,
2013-05-05 02:40:00,49.9,46.2,29.97,NW,315,1.0,1.0,87,0.00,,,0.00,Wunderground v.1.15,2013-05-05 07:40:00,
2013-05-05 02:45:00,49.9,46.2,29.97,NW,315,1.0,9.0,87,0.00,,,0.00,Wunderground v.1.15,2013-05-05 07:45:00,
2013-05-05 02:52:00,49.8,46.1,29.97,NNW,330,1.0,9.0,87,0.00,,,0.00,Wunderground v.1.15,2013-05-05 07:52:00,
2013-05-05 02:58:00,49.7,46.0,29.97,NNW,345,1.0,9.0,87,0.00,,,0.00,Wunderground v.1.15,2013-05-05 07:58:00,
2013-05-05 03:04:00,49.6,45.9,29.97,NW,315,1.0,9.0,87,0.00,,,0.00,Wunderground v.1.15,2013-05-05 08:04:00,
2013-05-05 03:10:00,49.5,45.8,29.96,North,354,1.0,9.0,87,0.00,,,0.00,Wunderground v.1.15,2013-05-05 08:10:00,
2013-05-05 03:15:00,49.3,45.9,29.97,WNW,299,2.0,9.0,88,0.00,,,0.00,Wunderground v.1.15,2013-05-05 08:15:00,
2013-05-05 03:22:00,49.2,45.8,29.96,NW,316,2.0,9.0,88,0.00,,,0.00,Wunderground v.1.15,2013-05-05 08:22:00,
2013-05-05 03:27:00,49.1,45.7,29.96,NNW,337,2.0,9.0,88,0.00,,,0.00,Wunderground v.1.15,2013-05-05 08:27:00,
2013-05-05 03:34:00,49.0,45.6,29.96,NW,311,1.0,9.0,88,0.00,,,0.00,Wunderground v.1.15,2013-05-05 08:34:00,
2013-05-05 03:40:00,48.9,45.5,29.96,North,350,1.0,1.0,88,0.00,,,0.00,Wunderground v.1.15,2013-05-05 08:40:00,
2013-05-05 03:46:00,48.9,45.8,29.96,NW,316,1.0,9.0,89,0.00,,,0.00,Wunderground v.1.15,2013-05-05 08:46:00,
2013-05-05 03:52:00,48.8,45.7,29.97,NW,316,1.0,9.0,89,0.00,,,0.00,Wunderground v.1.15,2013-05-05 08:52:00,
2013-05-05 03:57:00,48.7,45.6,29.97,NW,314,1.0,9.0,89,0.00,,,0.00,Wunderground v.1.15,2013-05-05 08:57:00,
2013-05-05 04:04:00,48.7,45.6,29.97,NW,316,1.0,9.0,89,0.00,,,0.00,Wunderground v.1.15,2013-05-05 09:04:00,
2013-05-05 04:09:00,48.6,45.5,29.97,East,84,1.0,9.0,89,0.00,,,0.00,Wunderground v.1.15,2013-05-05 09:09:00,
2013-05-05 04:16:00,48.5,45.4,29.97,NNE,26,1.0,9.0,89,0.00,,,0.00,Wunderground v.1.15,2013-05-05 09:16:00,
2013-05-05 04:22:00,48.4,45.3,29.97,NNW,345,1.0,9.0,89,0.00,,,0.00,Wunderground v.1.15,2013-05-05 09:22:00,
2013-05-05 04:28:00,48.3,45.2,29.97,NW,319,1.0,9.0,89,0.00,,,0.00,Wunderground v.1.15,2013-05-05 09:28:00,
2013-05-05 04:34:00,48.1,45.0,29.97,NW,318,0.0,9.0,89,0.00,,,0.00,Wunderground v.1.15,2013-05-05 09:34:00,
2013-05-05 04:39:00,47.8,45.0,29.98,NW,318,0.0,9.0,90,0.00,,,0.00,Wunderground v.1.15,2013-05-05 09:39:00,
2013-05-05 04:46:00,47.6,44.8,29.97,NW,318,0.0,9.0,90,0.00,,,0.00,Wunderground v.1.15,2013-05-05 09:46:00,
2013-05-05 04:51:00,47.3,44.8,29.97,NNW,332,0.0,9.0,91,0.00,,,0.00,Wunderground v.1.15,2013-05-05 09:51:00,
2013-05-05 04:58:00,47.1,44.6,29.97,NNW,331,0.0,9.0,91,0.00,,,0.00,Wunderground v.1.15,2013-05-05 09:58:00,
2013-05-05 05:03:00,47.0,44.5,29.97,NNW,332,0.0,9.0,91,0.00,,,0.00,Wunderground v.1.15,2013-05-05 10:03:00,
2013-05-05 05:10:00,46.8,44.6,29.97,NNW,331,0.0,9.0,92,0.00,,,0.00,Wunderground v.1.15,2013-05-05 10:10:00,
2013-05-05 05:16:00,46.5,44.3,29.98,NNW,332,0.0,9.0,92,0.00,,,0.00,Wunderground v.1.15,2013-05-05 10:16:00,
2013-05-05 05:21:00,46.3,44.1,29.98,NNW,331,0.0,9.0,92,0.00,,,0.00,Wunderground v.1.15,2013-05-05 10:21:00,
2013-05-05 05:28:00,46.3,44.1,29.98,NNW,332,0.0,9.0,92,0.00,,,0.00,Wunderground v.1.15,2013-05-05 10:28:00,
2013-05-05 05:33:00,46.2,44.3,29.98,NW,315,0.0,9.0,93,0.00,,,0.00,Wunderground v.1.15,2013-05-05 10:33:00,
2013-05-05 05:40:00,46.0,44.1,29.98,NNW,340,0.0,9.0,93,0.00,,,0.00,Wunderground v.1.15,2013-05-05 10:40:00,
2013-05-05 05:46:00,46.1,44.2,29.98,NW,315,0.0,9.0,93,0.00,,,0.00,Wunderground v.1.15,2013-05-05 10:46:00,
2013-05-05 05:52:00,46.1,44.2,29.98,NW,311,0.0,9.0,93,0.00,,,0.00,Wunderground v.1.15,2013-05-05 10:52:00,
2013-05-05 05:58:00,46.0,44.1,29.98,NW,326,0.0,9.0,93,0.00,,,0.00,Wunderground v.1.15,2013-05-05 10:58:00,
2013-05-05 06:03:00,46.0,44.1,29.98,North,360,1.0,9.0,93,0.00,,,0.00,Wunderground v.1.15,2013-05-05 11:03:00,
2013-05-05 06:10:00,46.0,43.8,29.98,NW,309,1.0,9.0,92,0.00,,,0.00,Wunderground v.1.15,2013-05-05 11:10:00,
2013-05-05 06:16:00,46.0,43.8,29.98,NNW,333,1.0,9.0,92,0.00,,,0.00,Wunderground v.1.15,2013-05-05 11:16:00,
2013-05-05 06:22:00,46.0,43.8,29.98,NW,306,1.0,9.0,92,0.00,,,0.00,Wunderground v.1.15,2013-05-05 11:22:00,
2013-05-05 06:28:00,46.0,43.8,29.98,NW,309,1.0,9.0,92,0.00,,,0.00,Wunderground v.1.15,2013-05-05 11:28:00,
2013-05-05 06:34:00,46.0,43.8,29.98,NW,315,1.0,9.0,92,0.00,,,0.00,Wunderground v.1.15,2013-05-05 11:34:00,
2013-05-05 06:40:00,46.0,43.8,29.98,NW,326,1.0,1.0,92,0.00,,,0.00,Wunderground v.1.15,2013-05-05 11:40:00,
2013-05-05 06:46:00,46.0,43.8,29.99,NW,319,1.0,9.0,92,0.00,,,0.00,Wunderground v.1.15,2013-05-05 11:46:00,
2013-05-05 06:52:00,46.1,43.6,29.99,WNW,290,1.0,9.0,91,0.00,,,0.00,Wunderground v.1.15,2013-05-05 11:52:00,
2013-05-05 06:57:00,46.1,43.6,29.99,NNW,332,2.0,9.0,91,0.00,,,0.00,Wunderground v.1.15,2013-05-05 11:57:00,
2013-05-05 07:04:00,46.1,43.6,29.99,NW,321,2.0,9.0,91,0.00,,,0.00,Wunderground v.1.15,2013-05-05 12:04:00,
2013-05-05 07:10:00,46.2,43.7,29.99,NW,314,2.0,9.0,91,0.00,,,0.00,Wunderground v.1.15,2013-05-05 12:10:00,
2013-05-05 07:16:00,46.1,43.6,29.99,NE,46,2.0,9.0,91,0.00,,,0.00,Wunderground v.1.15,2013-05-05 12:16:00,
2013-05-05 07:22:00,46.1,43.3,29.99,NNW,329,2.0,9.0,90,0.00,,,0.00,Wunderground v.1.15,2013-05-05 12:22:00,
2013-05-05 07:27:00,46.3,43.5,29.99,North,6,2.0,9.0,90,0.00,,,0.00,Wunderground v.1.15,2013-05-05 12:27:00,
2013-05-05 07:34:00,46.3,43.2,29.99,NNW,340,2.0,9.0,89,0.00,,,0.00,Wunderground v.1.15,2013-05-05 12:34:00,
2013-05-05 07:40:00,46.3,43.2,29.99,NW,317,3.0,9.0,89,0.00,,,0.00,Wunderground v.1.15,2013-05-05 12:40:00,
2013-05-05 07:46:00,46.5,43.4,29.99,North,9,2.0,9.0,89,0.00,,,0.00,Wunderground v.1.15,2013-05-05 12:46:00,
2013-05-05 07:52:00,46.6,43.2,29.99,North,359,3.0,9.0,88,0.00,,,0.00,Wunderground v.1.15,2013-05-05 12:52:00,
2013-05-05 07:58:00,46.7,43.3,29.99,WNW,290,3.0,9.0,88,0.00,,,0.00,Wunderground v.1.15,2013-05-05 12:58:00,
2013-05-05 08:04:00,46.7,43.3,30.00,NNW,335,2.0,9.0,88,0.00,,,0.00,Wunderground v.1.15,2013-05-05 13:04:00,
2013-05-05 08:10:00,46.8,43.4,30.00,North,349,2.0,9.0,88,0.00,,,0.00,Wunderground v.1.15,2013-05-05 13:10:00,
2013-05-05 08:16:00,46.9,43.5,30.00,NW,312,2.0,9.0,88,0.00,,,0.00,Wunderground v.1.15,2013-05-05 13:16:00,
2013-05-05 08:21:00,47.1,43.7,30.00,WNW,303,2.0,9.0,88,0.00,,,0.00,Wunderground v.1.15,2013-05-05 13:21:00,
2013-05-05 08:28:00,47.1,43.4,30.00,North,350,2.0,9.0,87,0.00,,,0.00,Wunderground v.1.15,2013-05-05 13:28:00,
2013-05-05 08:34:00,47.5,43.8,30.00,North,11,2.0,9.0,87,0.00,,,0.00,Wunderground v.1.15,2013-05-05 13:34:00,
2013-05-05 08:40:00,47.8,43.8,30.00,NW,311,2.0,9.0,86,0.00,,,0.00,Wunderground v.1.15,2013-05-05 13:40:00,
2013-05-05 08:45:00,47.9,43.9,30.00,NW,308,2.0,9.0,86,0.00,,,0.00,Wunderground v.1.15,2013-05-05 13:45:00,
2013-05-05 08:52:00,48.3,44.3,30.00,NNE,23,2.0,9.0,86,0.00,,,0.00,Wunderground v.1.15,2013-05-05 13:52:00,
2013-05-05 08:58:00,48.7,44.4,30.00,West,274,3.0,9.0,85,0.00,,,0.00,Wunderground v.1.15,2013-05-05 13:58:00,
2013-05-05 09:03:00,49.0,44.7,30.00,North,358,3.0,9.0,85,0.00,,,0.00,Wunderground v.1.15,2013-05-05 14:03:00,
2013-05-05 09:10:00,49.2,44.6,30.00,NNE,13,3.0,9.0,84,0.00,,,0.00,Wunderground v.1.15,2013-05-05 14:10:00,
2013-05-05 09:15:00,49.6,45.0,30.00,NNE,26,3.0,9.0,84,0.00,,,0.00,Wunderground v.1.15,2013-05-05 14:15:00,
2013-05-05 09:22:00,49.9,45.3,30.00,NW,311,2.0,9.0,84,0.00,,,0.00,Wunderground v.1.15,2013-05-05 14:22:00,
2013-05-05 09:28:00,50.5,45.8,30.00,NNW,348,2.0,9.0,84,0.00,,,0.00,Wunderground v.1.15,2013-05-05 14:28:00,
2013-05-05 09:34:00,50.9,45.6,30.01,North,351,1.0,9.0,82,0.00,,,0.00,Wunderground v.1.15,2013-05-05 14:34:00,
2013-05-05 09:40:00,50.8,45.8,30.00,NE,34,2.0,9.0,83,0.00,,,0.00,Wunderground v.1.15,2013-05-05 14:40:00,
2013-05-05 09:45:00,51.0,46.0,30.00,North,358,2.0,9.0,83,0.00,,,0.00,Wunderground v.1.15,2013-05-05 14:45:00,
2013-05-05 09:52:00,51.1,46.1,30.00,WNW,298,2.0,9.0,83,0.00,,,0.00,Wunderground v.1.15,2013-05-05 14:52:00,
2013-05-05 09:58:00,51.2,46.2,30.00,WNW,297,2.0,9.0,83,0.00,,,0.00,Wunderground v.1.15,2013-05-05 14:58:00,
2013-05-05 10:04:00,51.3,46.3,30.00,NNW,333,2.0,9.0,83,0.00,,,0.00,Wunderground v.1.15,2013-05-05 15:04:00,
2013-05-05 10:09:00,51.6,46.6,30.00,NW,315,2.0,9.0,83,0.00,,,0.00,Wunderground v.1.15,2013-05-05 15:09:00,
2013-05-05 10:16:00,52.2,46.9,30.00,NW,315,2.0,9.0,82,0.00,,,0.00,Wunderground v.1.15,2013-05-05 15:16:00,
2013-05-05 10:22:00,52.6,46.9,30.00,NW,309,1.0,9.0,81,0.00,,,0.00,Wunderground v.1.15,2013-05-05 15:22:00,
2013-05-05 10:28:00,52.8,47.1,30.00,NNW,334,2.0,9.0,81,0.00,,,0.00,Wunderground v.1.15,2013-05-05 15:28:00,
2013-05-05 10:34:00,53.3,47.6,30.00,NNE,27,2.0,9.0,81,0.00,,,0.00,Wunderground v.1.15,2013-05-05 15:34:00,
2013-05-05 10:39:00,53.8,47.8,30.00,NNE,12,2.0,9.0,80,0.00,,,0.00,Wunderground v.1.15,2013-05-05 15:39:00,
2013-05-05 10:46:00,54.1,48.1,30.00,NW,305,2.0,9.0,80,0.00,,,0.00,Wunderground v.1.15,2013-05-05 15:46:00,
2013-05-05 10:52:00,54.1,48.1,30.00,NNW,344,2.0,9.0,80,0.00,,,0.00,Wunderground v.1.15,2013-05-05 15:52:00,
2013-05-05 10:58:00,54.5,48.5,30.00,NW,322,2.0,9.0,80,0.00,,,0.00,Wunderground v.1.15,2013-05-05 15:58:00,
2013-05-05 11:04:00,55.1,48.7,30.00,NW,310,2.0,9.0,79,0.00,,,0.00,Wunderground v.1.15,2013-05-05 16:04:00,
2013-05-05 11:10:00,55.5,49.1,30.00,NNW,329,2.0,9.0,79,0.00,,,0.00,Wunderground v.1.15,2013-05-05 16:10:00,
2013-05-05 11:16:00,55.9,49.5,30.00,NW,319,2.0,9.0,79,0.00,,,0.00,Wunderground v.1.15,2013-05-05 16:16:00,
2013-05-05 11:21:00,56.4,50.0,30.00,NW,304,2.0,9.0,79,0.00,,,0.00,Wunderground v.1.15,2013-05-05 16:21:00,
2013-05-05 11:28:00,56.8,50.0,30.00,NW,315,2.0,9.0,78,0.00,,,0.00,Wunderground v.1.15,2013-05-05 16:28:00,
2013-05-05 11:33:00,57.0,50.2,29.99,NNW,330,2.0,9.0,78,0.00,,,0.00,Wunderground v.1.15,2013-05-05 16:33:00,
2013-05-05 11:40:00,57.2,50.4,29.99,NE,46,3.0,9.0,78,0.00,,,0.00,Wunderground v.1.15,2013-05-05 16:40:00,
2013-05-05 11:46:00,58.1,50.6,29.99,NW,309,3.0,9.0,76,0.00,,,0.00,Wunderground v.1.15,2013-05-05 16:46:00,
2013-05-05 11:52:00,58.4,50.5,29.99,NW,305,3.0,9.0,75,0.00,,,0.00,Wunderground v.1.15,2013-05-05 16:52:00,
2013-05-05 11:58:00,59.0,51.4,29.99,NNW,334,3.0,9.0,76,0.00,,,0.00,Wunderground v.1.15,2013-05-05 16:58:00,
2013-05-05 12:03:00,60.1,52.1,29.99,North,11,2.0,9.0,75,0.00,,,0.00,Wunderground v.1.15,2013-05-05 17:03:00,
2013-05-05 12:10:00,61.2,52.5,29.99,NE,34,2.0,9.0,73,0.00,,,0.00,Wunderground v.1.15,2013-05-05 17:10:00,
2013-05-05 12:15:00,61.3,53.3,29.99,NW,305,3.0,9.0,75,0.00,,,0.00,Wunderground v.1.15,2013-05-05 17:15:00,
2013-05-05 12:22:00,61.4,52.7,29.98,NW,323,3.0,9.0,73,0.00,,,0.00,Wunderground v.1.15,2013-05-05 17:22:00,
2013-05-05 12:27:00,61.9,52.8,29.98,West,268,4.0,9.0,72,0.00,,,0.00,Wunderground v.1.15,2013-05-05 17:27:00,
2013-05-05 12:34:00,62.5,53.0,29.98,NNW,347,4.0,9.0,71,0.00,,,0.00,Wunderground v.1.15,2013-05-05 17:34:00,
2013-05-05 12:40:00,63.0,53.4,29.98,NW,314,3.0,9.0,71,0.00,,,0.00,Wunderground v.1.15,2013-05-05 17:40:00,
2013-05-05 12:45:00,63.1,52.8,29.98,WNW,302,4.0,9.0,69,0.00,,,0.00,Wunderground v.1.15,2013-05-05 17:45:00,
2013-05-05 12:52:00,63.5,53.9,29.97,NW,322,3.0,9.0,71,0.00,,,0.00,Wunderground v.1.15,2013-05-05 17:52:00,
2013-05-05 12:57:00,63.9,54.7,29.98,WNW,298,3.0,9.0,72,0.00,,,0.00,Wunderground v.1.15,2013-05-05 17:57:00,
2013-05-05 13:04:00,64.4,54.4,29.97,NNW,341,3.0,9.0,70,0.00,,,0.00,Wunderground v.1.15,2013-05-05 18:04:00,
2013-05-05 13:10:00,64.5,54.5,29.97,NNW,334,3.0,9.0,70,0.00,,,0.00,Wunderground v.1.15,2013-05-05 18:10:00,
2013-05-05 13:16:00,64.6,54.2,29.97,NW,311,3.0,9.0,69,0.00,,,0.00,Wunderground v.1.15,2013-05-05 18:16:00,
2013-05-05 13:22:00,65.4,55.4,29.97,North,356,3.0,9.0,70,0.00,,,0.00,Wunderground v.1.15,2013-05-05 18:22:00,
2013-05-05 13:27:00,65.2,55.2,29.97,NNW,340,3.0,9.0,70,0.00,,,0.00,Wunderground v.1.15,2013-05-05 18:27:00,
2013-05-05 13:34:00,65.9,54.2,29.96,NW,321,4.0,9.0,66,0.00,,,0.00,Wunderground v.1.15,2013-05-05 18:34:00,
2013-05-05 13:40:00,66.0,54.3,29.96,North,354,3.0,9.0,66,0.00,,,0.00,Wunderground v.1.15,2013-05-05 18:40:00,
2013-05-05 13:46:00,66.2,54.5,29.96,NE,51,3.0,9.0,66,0.00,,,0.00,Wunderground v.1.15,2013-05-05 18:46:00,
2013-05-05 13:51:00,66.4,54.7,29.96,WNW,302,3.0,9.0,66,0.00,,,0.00,Wunderground v.1.15,2013-05-05 18:51:00,
2013-05-05 13:58:00,67.1,55.8,29.95,NW,311,3.0,9.0,67,0.00,,,0.00,Wunderground v.1.15,2013-05-05 18:58:00,
2013-05-05 14:04:00,67.7,55.9,29.95,NW,308,3.0,9.0,66,0.00,,,0.00,Wunderground v.1.15,2013-05-05 19:04:00,
2013-05-05 14:10:00,67.6,55.4,29.95,North,4,3.0,3.0,65,0.00,,,0.00,Wunderground v.1.15,2013-05-05 19:10:00,
2013-05-05 14:16:00,67.8,56.0,29.95,NW,326,3.0,9.0,66,0.00,,,0.00,Wunderground v.1.15,2013-05-05 19:16:00,
2013-05-05 14:21:00,68.1,55.5,29.95,NNE,16,3.0,9.0,64,0.00,,,0.00,Wunderground v.1.15,2013-05-05 19:21:00,
2013-05-05 14:28:00,68.1,55.0,29.95,ENE,75,4.0,9.0,63,0.00,,,0.00,Wunderground v.1.15,2013-05-05 19:28:00,
2013-05-05 14:34:00,67.8,54.7,29.95,NNW,341,4.0,9.0,63,0.00,,,0.00,Wunderground v.1.15,2013-05-05 19:34:00,
2013-05-05 14:40:00,67.9,55.3,29.95,NNE,29,3.0,9.0,64,0.00,,,0.00,Wunderground v.1.15,2013-05-05 19:40:00,
2013-05-05 14:46:00,68.0,54.9,29.95,NNW,327,2.0,9.0,63,0.00,,,0.00,Wunderground v.1.15,2013-05-05 19:46:00,
2013-05-05 14:51:00,68.2,55.1,29.94,North,355,3.0,9.0,63,0.00,,,0.00,Wunderground v.1.15,2013-05-05 19:51:00,
2013-05-05 14:58:00,68.8,56.1,29.94,NW,326,3.0,9.0,64,0.00,,,0.00,Wunderground v.1.15,2013-05-05 19:58:00,
2013-05-05 15:04:00,69.0,55.4,29.94,WSW,255,3.0,9.0,62,0.00,,,0.00,Wunderground v.1.15,2013-05-05 20:04:00,
2013-05-05 15:10:00,69.6,55.6,29.94,NNW,334,3.0,9.0,61,0.00,,,0.00,Wunderground v.1.15,2013-05-05 20:10:00,
2013-05-05 15:16:00,69.1,54.6,29.93,NNE,15,4.0,9.0,60,0.00,,,0.00,Wunderground v.1.15,2013-05-05 20:16:00,
2013-05-05 15:21:00,69.0,53.6,29.93,NNE,29,4.0,9.0,58,0.00,,,0.00,Wunderground v.1.15,2013-05-05 20:21:00,
2013-05-05 15:28:00,69.0,54.5,29.93,NW,315,3.0,9.0,60,0.00,,,0.00,Wunderground v.1.15,2013-05-05 20:28:00,
2013-05-05 15:33:00,69.0,54.5,29.93,WNW,293,3.0,9.0,60,0.00,,,0.00,Wunderground v.1.15,2013-05-05 20:33:00,
2013-05-05 15:40:00,69.0,54.5,29.93,NE,37,3.0,9.0,60,0.00,,,0.00,Wunderground v.1.15,2013-05-05 20:40:00,
2013-05-05 15:45:00,69.1,54.6,29.93,NW,311,2.0,9.0,60,0.00,,,0.00,Wunderground v.1.15,2013-05-05 20:45:00,
2013-05-05 15:52:00,69.2,54.3,29.92,WNW,301,2.0,9.0,59,0.00,,,0.00,Wunderground v.1.15,2013-05-05 20:52:00,
2013-05-05 15:58:00,69.1,54.6,29.92,WNW,283,2.0,9.0,60,0.00,,,0.00,Wunderground v.1.15,2013-05-05 20:58:00,
2013-05-05 16:04:00,69.3,54.8,29.92,WNW,295,2.0,9.0,60,0.00,,,0.00,Wunderground v.1.15,2013-05-05 21:04:00,
2013-05-05 16:10:00,69.4,54.4,29.92,NW,313,2.0,9.0,59,0.00,,,0.00,Wunderground v.1.15,2013-05-05 21:10:00,
2013-05-05 16:15:00,69.4,54.4,29.92,NNW,347,2.0,9.0,59,0.00,,,0.00,Wunderground v.1.15,2013-05-05 21:15:00,
2013-05-05 16:22:00,69.3,54.4,29.92,West,279,2.0,9.0,59,0.00,,,0.00,Wunderground v.1.15,2013-05-05 21:22:00,
2013-05-05 16:28:00,69.4,54.0,29.92,NW,316,2.0,9.0,58,0.00,,,0.00,Wunderground v.1.15,2013-05-05 21:28:00,
2013-05-05 16:34:00,69.6,54.6,29.92,NW,319,2.0,9.0,59,0.00,,,0.00,Wunderground v.1.15,2013-05-05 21:34:00,
2013-05-05 16:40:00,69.6,54.6,29.92,NW,315,3.0,9.0,59,0.00,,,0.00,Wunderground v.1.15,2013-05-05 21:40:00,
2013-05-05 16:45:00,69.5,55.0,29.92,NW,326,3.0,9.0,60,0.00,,,0.00,Wunderground v.1.15,2013-05-05 21:45:00,
2013-05-05 16:52:00,69.3,54.8,29.92,NW,316,3.0,9.0,60,0.00,,,0.00,Wunderground v.1.15,2013-05-05 21:52:00,
2013-05-05 16:57:00,69.5,54.5,29.92,WNW,287,2.0,9.0,59,0.00,,,0.00,Wunderground v.1.15,2013-05-05 21:57:00,
2013-05-05 17:04:00,69.6,54.2,29.92,NNW,328,2.0,9.0,58,0.00,,,0.00,Wunderground v.1.15,2013-05-05 22:04:00,
2013-05-05 17:09:00,69.4,53.5,29.92,West,276,2.0,9.0,57,0.00,,,0.00,Wunderground v.1.15,2013-05-05 22:09:00,
2013-05-05 17:16:00,69.7,54.7,29.92,West,277,2.0,9.0,59,0.00,,,0.00,Wunderground v.1.15,2013-05-05 22:16:00,
2013-05-05 17:22:00,70.1,54.6,29.92,NNW,337,2.0,9.0,58,0.00,,,0.00,Wunderground v.1.15,2013-05-05 22:22:00,
2013-05-05 17:28:00,70.3,53.9,29.92,NW,312,2.0,9.0,56,0.00,,,0.00,Wunderground v.1.15,2013-05-05 22:28:00,
2013-05-05 17:34:00,70.4,53.5,29.92,NNW,337,2.0,9.0,55,0.00,,,0.00,Wunderground v.1.15,2013-05-05 22:34:00,
2013-05-05 17:39:00,70.3,54.3,29.92,NNW,337,2.0,9.0,57,0.00,,,0.00,Wunderground v.1.15,2013-05-05 22:39:00,
2013-05-05 17:46:00,70.2,52.8,29.92,North,360,2.0,9.0,54,0.00,,,0.00,Wunderground v.1.15,2013-05-05 22:46:00,
2013-05-05 17:51:00,70.0,52.6,29.92,NE,49,3.0,9.0,54,0.00,,,0.00,Wunderground v.1.15,2013-05-05 22:51:00,
2013-05-05 17:58:00,70.4,53.5,29.92,NNE,22,3.0,9.0,55,0.00,,,0.00,Wunderground v.1.15,2013-05-05 22:58:00,
2013-05-05 18:04:00,70.7,52.7,29.92,North,8,3.0,9.0,53,0.00,,,0.00,Wunderground v.1.15,2013-05-05 23:04:00,
2013-05-05 18:09:00,70.7,52.2,29.92,NW,326,3.0,9.0,52,0.00,,,0.00,Wunderground v.1.15,2013-05-05 23:09:00,
2013-05-05 18:16:00,70.5,53.1,29.92,NW,315,3.0,9.0,54,0.00,,,0.00,Wunderground v.1.15,2013-05-05 23:16:00,
2013-05-05 18:21:00,70.4,52.4,29.92,NW,319,2.0,9.0,53,0.00,,,0.00,Wunderground v.1.15,2013-05-05 23:21:00,
2013-05-05 18:28:00,70.1,51.7,29.92,NNW,342,2.0,9.0,52,0.00,,,0.00,Wunderground v.1.15,2013-05-05 23:28:00,
2013-05-05 18:33:00,69.6,51.2,29.92,NW,322,3.0,9.0,52,0.00,,,0.00,Wunderground v.1.15,2013-05-05 23:33:00,
2013-05-05 18:40:00,69.6,51.2,29.92,NW,310,3.0,9.0,52,0.00,,,0.00,Wunderground v.1.15,2013-05-05 23:40:00,
2013-05-05 18:46:00,69.6,51.2,29.92,NW,326,3.0,9.0,52,0.00,,,0.00,Wunderground v.1.15,2013-05-05 23:46:00,
2013-05-05 18:52:00,69.6,51.2,29.92,NW,324,3.0,9.0,52,0.00,,,0.00,Wunderground v.1.15,2013-05-05 23:52:00,
2013-05-05 18:58:00,69.5,51.1,29.92,WNW,293,3.0,9.0,52,0.00,,,0.00,Wunderground v.1.15,2013-05-05 23:58:00,
2013-05-05 19:03:00,69.3,51.4,29.92,NW,313,2.0,9.0,53,0.00,,,0.00,Wunderground v.1.15,2013-05-06 00:03:00,
2013-05-05 19:10:00,68.8,51.5,29.92,North,349,2.0,9.0,54,0.00,,,0.00,Wunderground v.1.15,2013-05-06 00:10:00,
2013-05-05 19:15:00,68.1,54.6,29.92,NNW,328,2.0,9.0,62,0.00,,,0.00,Wunderground v.1.15,2013-05-06 00:15:00,
2013-05-05 19:22:00,66.8,56.3,29.92,NW,305,3.0,9.0,69,0.00,,,0.00,Wunderground v.1.15,2013-05-06 00:22:00,
2013-05-05 19:27:00,66.0,56.7,29.93,NW,313,3.0,9.0,72,0.00,,,0.00,Wunderground v.1.15,2013-05-06 00:27:00,
2013-05-05 19:34:00,65.4,56.5,29.93,NW,313,2.0,9.0,73,0.00,,,0.00,Wunderground v.1.15,2013-05-06 00:34:00,
2013-05-05 19:40:00,65.0,56.5,29.93,West,267,2.0,9.0,74,0.00,,,0.00,Wunderground v.1.15,2013-05-06 00:40:00,
2013-05-05 19:46:00,64.5,56.4,29.93,North,5,3.0,9.0,75,0.00,,,0.00,Wunderground v.1.15,2013-05-06 00:46:00,
2013-05-05 19:52:00,64.1,56.4,29.93,NW,326,3.0,9.0,76,0.00,,,0.00,Wunderground v.1.15,2013-05-06 00:52:00,
2013-05-05 19:57:00,63.7,56.0,29.93,NW,309,3.0,9.0,76,0.00,,,0.00,Wunderground v.1.15,2013-05-06 00:57:00,
2013-05-05 20:04:00,63.4,56.1,29.93,NW,305,3.0,9.0,77,0.00,,,0.00,Wunderground v.1.15,2013-05-06 01:04:00,
2013-05-05 20:10:00,63.0,56.0,29.93,NW,314,3.0,3.0,78,0.00,,,0.00,Wunderground v.1.15,2013-05-06 01:10:00,
2013-05-05 20:16:00,62.5,55.5,29.93,WNW,299,3.0,9.0,78,0.00,,,0.00,Wunderground v.1.15,2013-05-06 01:16:00,
2013-05-05 20:22:00,62.1,55.5,29.93,NW,309,3.0,9.0,79,0.00,,,0.00,Wunderground v.1.15,2013-05-06 01:22:00,
2013-05-05 20:27:00,61.7,55.5,29.93,NW,316,3.0,9.0,80,0.00,,,0.00,Wunderground v.1.15,2013-05-06 01:27:00,
2013-05-05 20:34:00,61.4,55.5,29.94,North,6,3.0,9.0,81,0.00,,,0.00,Wunderground v.1.15,2013-05-06 01:34:00,
2013-05-05 20:39:00,61.1,55.2,29.94,NW,326,3.0,3.0,81,0.00,,,0.00,Wunderground v.1.15,2013-05-06 01:39:00,
2013-05-05 20:46:00,60.7,55.2,29.94,NW,308,3.0,9.0,82,0.00,,,0.00,Wunderground v.1.15,2013-05-06 01:46:00,
2013-05-05 20:51:00,60.5,55.0,29.94,NW,305,4.0,9.0,82,0.00,,,0.00,Wunderground v.1.15,2013-05-06 01:51:00,
2013-05-05 20:58:00,60.1,54.6,29.94,NW,310,3.0,9.0,82,0.00,,,0.00,Wunderground v.1.15,2013-05-06 01:58:00,
2013-05-05 21:04:00,59.9,54.7,29.94,NNW,347,4.0,9.0,83,0.00,,,0.00,Wunderground v.1.15,2013-05-06 02:04:00,
2013-05-05 21:10:00,59.7,54.5,29.94,WNW,302,3.0,9.0,83,0.00,,,0.00,Wunderground v.1.15,2013-05-06 02:10:00,
2013-05-05 21:16:00,59.4,54.2,29.95,NW,309,3.0,9.0,83,0.00,,,0.00,Wunderground v.1.15,2013-05-06 02:16:00,
2013-05-05 21:21:00,59.2,54.0,29.95,NW,308,3.0,5.0,83,0.00,,,0.00,Wunderground v.1.15,2013-05-06 02:21:00,
2013-05-05 21:28:00,59.0,54.2,29.95,West,277,4.0,9.0,84,0.00,,,0.00,Wunderground v.1.15,2013-05-06 02:28:00,
2013-05-05 21:33:00,58.8,54.0,29.95,WNW,291,3.0,9.0,84,0.00,,,0.00,Wunderground v.1.15,2013-05-06 02:33:00,
2013-05-05 21:40:00,58.6,53.8,29.95,NW,308,3.0,3.0,84,0.00,,,0.00,Wunderground v.1.15,2013-05-06 02:40:00,
2013-05-05 21:45:00,58.4,53.6,29.95,NW,316,2.0,9.0,84,0.00,,,0.00,Wunderground v.1.15,2013-05-06 02:45:00,
2013-05-05 21:52:00,58.2,53.7,29.95,NW,319,3.0,9.0,85,0.00,,,0.00,Wunderground v.1.15,2013-05-06 02:52:00,
2013-05-05 21:58:00,58.0,53.5,29.95,NNW,327,3.0,9.0,85,0.00,,,0.00,Wunderground v.1.15,2013-05-06 02:58:00,
2013-05-05 22:04:00,57.8,53.3,29.95,NNW,342,3.0,9.0,85,0.00,,,0.00,Wunderground v.1.15,2013-05-06 03:04:00,
2013-05-05 22:10:00,57.5,53.0,29.95,NNW,328,3.0,3.0,85,0.00,,,0.00,Wunderground v.1.15,2013-05-06 03:10:00,
2013-05-05 22:15:00,57.3,53.1,29.95,WNW,295,3.0,9.0,86,0.00,,,0.00,Wunderground v.1.15,2013-05-06 03:15:00,
2013-05-05 22:22:00,57.2,53.0,29.95,NW,315,3.0,9.0,86,0.00,,,0.00,Wunderground v.1.15,2013-05-06 03:22:00,
2013-05-05 22:28:00,56.9,52.8,29.95,NW,308,2.0,9.0,86,0.00,,,0.00,Wunderground v.1.15,2013-05-06 03:28:00,
2013-05-05 22:34:00,56.8,53.0,29.95,West,280,2.0,9.0,87,0.00,,,0.00,Wunderground v.1.15,2013-05-06 03:34:00,
2013-05-05 22:40:00,56.7,52.9,29.95,NW,316,2.0,2.0,87,0.00,,,0.00,Wunderground v.1.15,2013-05-06 03:40:00,
2013-05-05 22:45:00,56.5,52.7,29.95,NW,309,2.0,9.0,87,0.00,,,0.00,Wunderground v.1.15,2013-05-06 03:45:00,
2013-05-05 22:52:00,56.3,52.5,29.95,NNW,337,2.0,9.0,87,0.00,,,0.00,Wunderground v.1.15,2013-05-06 03:52:00,
2013-05-05 22:57:00,56.2,52.7,29.95,NW,314,2.0,9.0,88,0.00,,,0.00,Wunderground v.1.15,2013-05-06 03:57:00,
2013-05-05 23:02:00,56.1,52.6,29.95,NNW,334,2.0,9.0,88,0.00,,,0.00,Wunderground v.1.15,2013-05-06 04:02:00,
2013-05-05 23:04:00,56.0,52.5,29.95,NW,323,2.0,9.0,88,0.00,,,0.00,Wunderground v.1.15,2013-05-06 04:04:00,
2013-05-05 23:08:00,55.9,52.4,29.95,NW,309,2.0,9.0,88,0.00,,,0.00,Wunderground v.1.15,2013-05-06 04:08:00,
2013-05-05 23:09:00,55.8,52.3,29.95,NNW,347,2.0,2.0,88,0.00,,,0.00,Wunderground v.1.15,2013-05-06 04:09:00,
2013-05-05 23:16:00,55.7,52.2,29.95,NNW,340,2.0,9.0,88,0.00,,,0.00,Wunderground v.1.15,2013-05-06 04:16:00,
2013-05-05 23:21:00,55.5,52.0,29.95,NNW,342,2.0,9.0,88,0.00,,,0.00,Wunderground v.1.15,2013-05-06 04:21:00,
2013-05-05 23:23:00,55.5,52.0,29.95,NW,315,2.0,9.0,88,0.00,,,0.00,Wunderground v.1.15,2013-05-06 04:23:00,
2013-05-05 23:30:00,55.3,52.1,29.95,NNW,329,2.0,9.0,89,0.00,,,0.00,Wunderground v.1.15,2013-05-06 04:30:00,
2013-05-05 23:35:00,55.2,51.7,29.95,NW,315,2.0,9.0,88,0.00,,,0.00,Wunderground v.1.15,2013-05-06 04:35:00,
2013-05-05 23:42:00,55.0,51.8,29.95,NW,323,2.0,9.0,89,0.00,,,0.00,Wunderground v.1.15,2013-05-06 04:42:00,
2013-05-05 23:47:00,54.9,51.7,29.95,NNW,329,2.0,9.0,89,0.00,,,0.00,Wunderground v.1.15,2013-05-06 04:47:00,
2013-05-05 23:54:00,54.7,51.5,29.95,NNW,329,2.0,9.0,89,0.00,,,0.00,Wunderground v.1.15,2013-05-06 04:54:00,